星链-35202(STARLINK-35202)

导读 | 豆包AI

STARLINK-35202是美国SpaceX星链星座的卫星,于2025年9月18日发射。星链项目旨在构建全球卫星互联网星座,为全球偏远地区、海洋等网络薄弱区域提供高速宽带服务,该卫星的发射延续了星链星座扩容进程,进一步扩充了美国低轨卫星通信网络规模。

Basic Information
目录编号:
65647
目录名称:
STARLINK-35202
国际标识:
2025-210AB
轨道中心:
EARTH
卫星名称:
星链-35202
卫星全名:
星链-35202(STARLINK-35202)
卫星状态:
在轨 (已飞行223 天)
发射日期:
2025-09-18 UTC
国别 :
美国 (US)
星等 :
--
Orbit Information
数据来源 国际轨道数据 AOE轨道数据
星历时间 2026-04-29T12:00:02+0800
5小时前
查看轨道信息
2026-04-22T22:00:00+0800
6天前
查看轨道信息
半长轴 6817.949km 6853.327km
偏心率 0.0001466 0.0001243
轨道倾角 53.160° 53.159°
近地点辐角 87.772° 97.017°
升交点赤经 72.454° 103.360°
平近点角 197.713° 96.834°
近地点 438.812km 474.338km
远地点 440.812km 476.042km
周期 93.377分钟 94.105分钟
每日圈数 15.421342 15.302085
Detailed Information
固有亮度:
5
最大亮度:
2.5
卫星平台:
Starlink V1.0
覆盖范围:
全球
运营商:
太空探索技术公司
运营商所在国:
美国
制造商(研发单位):
太空探索技术公司
制造商所在国:
美国
使用方式:
暂无
Satellite Introduction
Starlink 计划是 SpaceX 推出的全球卫星互联网项目,通过发射低轨道卫星,为全球尤其是偏远地区提供高速、低延迟的互联网服务。自 2019 年起,Starlink 已部署数千颗卫星,旨在缩小全球数字鸿沟,推动互联网普及。该项目还为军事、航空等行业提供通信支持,带来广泛经济效益。
2D Orbit Map
3D Orbit Map
Orbit Altitude Analysis Chart
Orbit Inclination Analysis Chart
Orbit Comprehensive Analysis Chart
View Comprehensive Chart